TimeCDT,TemperatureF,Dew PointF,Humidity,Sea Level PressureIn,VisibilityMPH,Wind Direction,Wind SpeedMPH,Gust SpeedMPH,PrecipitationIn,Events,Conditions,WindDirDegrees,DateUTC
12:15 AM,37.4,35.6,93,29.87,10.0,West,9.2,-,N/A,,Clear,260,2012-10-10 05:15:00
12:35 AM,37.4,35.6,93,29.88,10.0,WSW,6.9,-,N/A,,Clear,250,2012-10-10 05:35:00
12:55 AM,35.6,35.6,100,29.88,10.0,WSW,5.8,-,N/A,,Clear,250,2012-10-10 05:55:00
1:15 AM,35.6,33.8,93,29.89,10.0,WSW,4.6,-,N/A,,Clear,240,2012-10-10 06:15:00
1:35 AM,35.6,33.8,93,29.90,10.0,WSW,6.9,-,N/A,,Clear,250,2012-10-10 06:35:00
1:55 AM,35.6,33.8,93,29.90,10.0,West,8.1,-,N/A,,Clear,260,2012-10-10 06:55:00
2:15 AM,35.6,33.8,93,29.91,10.0,West,8.1,-,N/A,,Clear,260,2012-10-10 07:15:00
2:35 AM,35.6,33.8,93,29.91,10.0,West,9.2,-,N/A,,Scattered Clouds,270,2012-10-10 07:35:00
2:55 AM,35.6,33.8,93,29.91,10.0,West,6.9,-,N/A,,Mostly Cloudy,260,2012-10-10 07:55:00
3:15 AM,35.6,32.0,87,29.91,10.0,West,5.8,-,N/A,,Scattered Clouds,260,2012-10-10 08:15:00
3:35 AM,33.8,32.0,93,29.92,10.0,West,9.2,-,N/A,,Scattered Clouds,260,2012-10-10 08:35:00
3:55 AM,33.8,32.0,93,29.92,10.0,West,9.2,-,N/A,,Clear,270,2012-10-10 08:55:00
4:15 AM,33.8,32.0,93,29.92,10.0,West,9.2,-,N/A,,Clear,280,2012-10-10 09:15:00
4:35 AM,33.8,32.0,93,29.93,10.0,West,10.4,-,N/A,,Clear,280,2012-10-10 09:35:00
4:55 AM,33.8,32.0,93,29.93,10.0,West,9.2,-,N/A,,Clear,270,2012-10-10 09:55:00
5:15 AM,33.8,32.0,93,29.93,10.0,West,6.9,-,N/A,,Clear,280,2012-10-10 10:15:00
5:35 AM,33.8,32.0,93,29.95,10.0,West,9.2,-,N/A,,Clear,270,2012-10-10 10:35:00
7:45 AM,33.8,28.4,81,29.99,10.0,West,13.8,-,N/A,,Clear,270,2012-10-10 12:45:00
8:45 AM,37.4,30.2,75,30.02,10.0,West,16.1,-,N/A,,Scattered Clouds,270,2012-10-10 13:45:00
9:45 AM,37.4,30.2,75,30.04,10.0,West,18.4,-,N/A,,Scattered Clouds,280,2012-10-10 14:45:00
10:45 AM,39.2,28.4,65,30.06,10.0,West,18.4,-,N/A,,Mostly Cloudy,280,2012-10-10 15:45:00
11:45 AM,42.8,24.8,49,30.06,10.0,WNW,18.4,-,N/A,,Mostly Cloudy,290,2012-10-10 16:45:00
12:45 PM,44.6,24.8,46,30.06,10.0,WNW,18.4,-,N/A,,Overcast,300,2012-10-10 17:45:00
1:45 PM,44.6,23.0,43,30.07,10.0,WNW,21.9,34.5,N/A,,Mostly Cloudy,300,2012-10-10 18:45:00
2:45 PM,44.6,21.2,39,30.08,10.0,WNW,17.3,-,N/A,,Mostly Cloudy,290,2012-10-10 19:45:00
3:45 PM,46.4,21.2,37,30.08,10.0,West,17.3,-,N/A,,Mostly Cloudy,280,2012-10-10 20:45:00
4:45 PM,46.4,21.2,37,30.09,10.0,West,17.3,-,N/A,,Scattered Clouds,270,2012-10-10 21:45:00
5:45 PM,44.6,21.2,39,30.10,10.0,West,10.4,-,N/A,,Clear,270,2012-10-10 22:45:00
6:45 PM,41.0,23.0,49,30.11,10.0,WSW,5.8,-,N/A,,Clear,250,2012-10-10 23:45:00
7:45 PM,37.4,23.0,56,30.13,10.0,SW,4.6,-,N/A,,Clear,220,2012-10-11 00:45:00
8:45 PM,37.4,23.0,56,30.13,10.0,SSW,5.8,-,N/A,,Clear,200,2012-10-11 01:45:00
9:15 PM,35.6,24.8,65,30.14,10.0,South,3.5,-,N/A,,Clear,190,2012-10-11 02:15:00
9:35 PM,35.6,24.8,65,30.14,10.0,South,4.6,-,N/A,,Clear,190,2012-10-11 02:35:00
9:55 PM,35.6,26.6,70,30.15,10.0,SSW,5.8,-,N/A,,Clear,210,2012-10-11 02:55:00
10:15 PM,35.6,26.6,70,30.15,10.0,SSW,5.8,-,N/A,,Clear,210,2012-10-11 03:15:00
10:35 PM,35.6,26.6,70,30.13,10.0,SSW,5.8,-,N/A,,Clear,200,2012-10-11 03:35:00
10:55 PM,35.6,26.6,70,30.14,10.0,SSW,6.9,-,N/A,,Scattered Clouds,210,2012-10-11 03:55:00
11:15 PM,33.8,26.6,75,30.13,10.0,SSW,5.8,-,N/A,,Clear,210,2012-10-11 04:15:00
11:35 PM,33.8,26.6,75,30.13,10.0,SSW,5.8,-,N/A,,Clear,210,2012-10-11 04:35:00
11:55 PM,35.6,26.6,70,30.12,10.0,SSW,4.6,-,N/A,,Mostly Cloudy,200,2012-10-11 04:55:00